Location: ????????
(56.1167°N, 38.6333°E)
Time: 11:49:13
(UTC+00:00)

Cosmos 1782 Rocket - Pass Details

Date: 18 November 2025
Orbit: 599 x 626 km, 82.5° (Epoch: 09 December)

Event Time Altitude Azimuth Distance (km) Brightness Sun altitude
Rises 14:11:37 0° 176° (S) 2,902 7.3 -8.1°
Reaches altitude 10° 14:13:53 10° 171° (S) 1,998 6.4 -8.4°
Maximum altitude 14:18:11 53° 96° (E) 776 3.7 -9.0°
Drops below altitude 10° 14:22:30 10° 20° (NNE) 2,003 5.8 -9.5°
Sets 14:24:46 0° 15° (NNE) 2,910 6.7 -9.8°
